Other Public Products
Issued by NWS Grand Forks, ND

Home | Current Version | Previous Version | Graphics & Text | Print | Product List | Glossary On
Versions: 1 2 3 4 5 6 7 8 9 10 11 12 13 14 15 16 17 18 19 20 21 22 23 24 25 26 27 28 29 30 31 32 33 34 35 36 37 38 39 40 41 42 43 44 45 46 47 48 49 50
000
FPUS83 KFGF 202010
OPUFGF
NATIONAL WEATHER SERVICE EASTERN NORTH DAKOTA/GRAND FORKS ND
300 PM CDT WED SEP 20 2017

 **SATELLITE DATA USED TO AUGMENT SKY COVER AT AUTOMATED STATIONS**
 *****  WEATHER ACROSS EASTERN NORTH DAKOTA  *****

CITY           SKY/WX    TMP DP  RH WIND       PRES   REMARKS
GRAND FORKS    FAIR      71  40  32 SW20G26   29.71S
GRAND FORKS AF FAIR      72  38  30 W17G26    29.71S
GRAND CITY NWS NOT AVBL
BUXTON         NOT AVBL
DEVILS LAKE    FAIR      66  40  38 SW22G31   29.67S
FARGO          FAIR      71  38  29 SW13      29.77R
WAHPETON ARPT  FAIR      68  36  30 W6        29.81R
$$

 *****  WEATHER ACROSS CENTRAL AND WESTERN NORTH DAKOTA  *****

CITY           SKY/WX    TMP DP  RH WIND       PRES   REMARKS
JAMESTOWN      FAIR      70  36  28 W23G32    29.73F
BISMARCK       FAIR      70  35  27 SW17      29.70F
MINOT          FAIR      68  33  27 SW20G32   29.61S
MINOT AFB      FAIR      66  34  30 SW21G31   29.59S
GARRISON         N/A     67  36  31 SW22G28   29.64
WILLISTON      FAIR      65  34  31 SW18G26   29.59F
DICKINSON      FAIR      67  32  27 SW23G36   29.65S
HETTINGER      FAIR      68  29  23 SW22G29   29.71F
$$

 *****  OTHER OBSERVATIONS NORTHEAST NORTH DAKOTA  *****

CITY           SKY/WX    TMP DP  RH WIND       PRES   REMARKS
WALHALLA       FAIR     N/A N/A N/A S22G28    29.65S
LANGDON        FAIR      68  37  32 SW25G32   29.66S
CAVALIER       FAIR      68  37  32 SW14G22   29.66S
GRAFTON        FAIR      70  37  30 SW18      29.71R
CANDO          FAIR      68  39  34 SW20G29   29.66S
FORT TOTTEN      N/A     67  36  31 SW14      29.95S
ROLLA          FAIR      64  41  42 SW23G36   29.61S
RUGBY          FAIR      66  39  37 SW25G33   29.62F
 ***** THE ABOVE OBSERVATIONS ARE NON NWS ARE NOT QUALITY
        CONTROLLED AND MAY MIS-REPORT RAIN FOR SNOW...
$$

 *****  OTHER OBSERVATIONS SOUTHEAST NORTH DAKOTA *****

CITY           SKY/WX    TMP DP  RH WIND       PRES   REMARKS
COOPERSTOWN    FAIR      70  41  35 SW18G31   29.73F
VALLEY CITY    FAIR      70  39  32 SW15G23   29.76F
OAKES          NOT AVBL
GWINNER        CLEAR     70  41  35 SW10G16   29.78F
SHEYENNE NWR     N/A     71  41  33 W10       29.95S
BUFFALO        NOT AVBL
WYNDMERE       NOT AVBL
 ***** THE ABOVE OBSERVATIONS ARE NON NWS ARE NOT QUALITY
       CONTROLLED AND MAY MIS-REPORT RAIN FOR SNOW...
$$

  *****  WEATHER ACROSS NORTHERN MINNESOTA  *****

CITY           SKY/WX    TMP DP  RH WIND       PRES   REMARKS
FLAG ISLAND    FAIR      64  43  45 SW12      29.69R
WARROAD        FAIR      66  46  48 SW12G18   29.72R
ROSEAU         FAIR      68  41  37 SW17G26   29.71R
HALLOCK        CLOUDY    72  34  25 SW15G23   29.68S
THF RVR FALLS  FAIR      68  41  37 SW18G24   29.75
HALSTAD        NOT AVBL
FOSSTON        FAIR      66  46  48 SW16      29.78S
BAUDETTE       FAIR      66  42  41 W12G20    29.73R
WASKISH        FAIR      64  48  55 SW9       29.77R
CROOKSTON      FAIR      70  39  32 W13G20    29.74S
$$
  *****  WEATHER ACROSS CENTRAL AND WEST MINNESOTA  *****

CITY           SKY/WX    TMP DP  RH WIND       PRES   REMARKS
BEMIDJI        FAIR      66  41  39 W10       29.78S
PARK RAPIDS    FAIR      68  44  42 W9        29.80S
WADENA         FAIR      66  41  39 NW8       29.81R
DETROIT LAKES  FAIR      66  41  39 W7        29.81S
MOORHEAD       FAIR      70  36  28 SW13      29.78S
FERGUS FALLS   FAIR      68  39  34 W9G17     29.81R
ELBOW LAKE     FAIR      68  41  37 SW8       29.83R
MORRIS MN      FAIR      72  41  33 W8        29.83R
STAPLES        NOT AVBL
WHEATON        FAIR      70  36  28 W9G16     29.83R
$$
  *****  WEATHER ELSEWHERE ACROSS MINNESOTA  *****

CITY           SKY/WX    TMP DP  RH WIND       PRES   REMARKS
DULUTH         FAIR      70  55  59 W13       29.77R
INTRNTL FALLS  FAIR      65  48  54 W9        29.74R
ELY            PTSUNNY   64  55  72 W10       29.75R
CLOQUET        FAIR      70  46  43 SW10      29.78R
BRAINERD       FAIR      67  44  43 VRB7      29.81R
HIBBING        FAIR      67  47  48 W8        29.78R
ALEXANDRIA     FAIR      68  41  37 W8        29.85R
SAINT CLOUD    FAIR      70  49  47 NW10      29.83R
MINNEAPOLIS    FAIR      75  53  46 W14       29.82R
$$

  *****  WEATHER ACROSS SOUTH DAKOTA  *****

CITY           SKY/WX    TMP DP  RH WIND       PRES   REMARKS
SIOUX FALLS    FAIR      70  52  52 S7        29.88R
BROOKINGS      FAIR      68  39  34 VRB7      29.86S
WATERTOWN      FAIR      68  43  40 S10G16    29.83S
HURON          FAIR      72  40  31 SW13      29.82F
SISSETON         N/A     71  42  35 W14G20    29.80
ABERDEEN       FAIR      71  39  31 S12G20    29.79F
MITCHELL       FAIR      72  36  26 CALM      29.85S
PIERRE         FAIR      73  30  20 W9        29.76F
MOBRIDGE       FAIR      72  42  34 S13       29.73F
RAPID CITY     SUNNY     70  27  19 W14G22    29.76F
$$

  *****  SOME WEATHER IN NEARBY STATES *****

CITY           SKY/WX    TMP DP  RH WIND       PRES   REMARKS
GLASGOW MT     FAIR      63  27  25 SW14G26   29.52F
GREAT FALLS MT FAIR      54  31  41 SW22G35   29.53S
CHEYENNE WY    FAIR      65  30  27 S16G30    29.94F
SCOTTSBLUFF NE FAIR      74  37  26 S14G22    29.86F
OMAHA NE       FAIR      80  55  42 N14       29.83S
DES MOINES IA  PTSUNNY   86  69  56 S8        29.77S HX  90
DAVENPORT IA   FAIR      92  70  48 S14G24    29.80F HX  97
CHICAGO IL     FAIR      91  67  44 S17       29.86F HX  94
EAU CLAIRE WI  CLOUDY    75  64  68 NW14      29.79R
LA CROSSE WI   CLOUDY    83  70  64 W6        29.76S
$$

  *****  SOME NATIONAL WEATHER *****

CITY           SKY/WX    TMP DP  RH WIND       PRES   REMARKS
LA GUARDIA NY  PTSUNNY   78  65  63 N20G28    29.87R
RALEIGH NC     FAIR      87  61  41 NW7       29.95F
ATLANTA GA     FAIR      87  64  46 VRB5      30.02F
NEW ORLEANS LA TSTM      80  75  84 E12       29.98F
OKLAHOMA CITY  FAIR      90  70  51 S14       29.81F HX  95
ALBUQUERQUE NM FAIR      80  25  13 VRB3      30.05F
SALT LAKE CITY FAIR      74  31  20 S22G29    29.80F
LOS ANGELES CA FAIR      75  62  64 SW13      29.89F
BOISE ID       RAIN      51  47  86 N12       29.74R
SEATTLE WA     PTSUNNY   54  47  77 VRB3      29.72R
$$

*** WEATHER ACROSS MANITOBA...SASKATCHEWAN AND ONTARIO ***
                ***ONTARIO***

CITY           SKY/WX    TMP DP  RH WIND       PRES   REMARKS
GERALDTON      PTSUNNY   68  61  77 S13G31    29.76F
THUNDER BAY    LGT RAIN  64  63  94 S5        29.72R
SIOUX LOOKOUT  PTSUNNY   63  54  72 SW8       29.68R
TORONTO        MOSUNNY   75  66  73 SE9       30.01S
BIG TROUT LK   LGT RAIN  59  54  82 SE20G29   29.55F
PICKLE LAKE    LGT RAIN  57  55  94 W10G20    29.62R FOG
DRYDEN         PTSUNNY   63  50  63 SW16G23   29.68R
KENORA         MOSUNNY   64  43  45 SW17G25   29.68R
$$
                *** MANITOBA***

CITY           SKY/WX    TMP DP  RH WIND       PRES   REMARKS
BRANDON        PTSUNNY   64  41  42 SW22      29.54S
DAUPHIN        SUNNY     68  43  40 SW18G30   29.45S
ISLAND LAKE    NOT AVBL
PILOT MOUND      N/A     66  36  32 SW25G32     N/A
THE PAS        LGT RAIN  48  45  87 SW14G22   29.23R
THOMPSON       CLOUDY    50  48  93 E10G23    29.23F
WINNIPEG       MOSUNNY   70  37  30 SW22G29   29.61R
LYNN LAKE      LGT RAIN  43  43 100 NE22G39   29.30S FOG
CHURCHILL      CLOUDY    45  39  81 E26G40    29.79F
GILLAM         LGT RAIN  48  46  93 E10G28    29.44F FOG
$$
                ***SASKATCHEWAN***

CITY           SKY/WX    TMP DP  RH WIND       PRES   REMARKS
ESTEVAN        PTSUNNY   63  32  31 SW21G32   29.54F
KINDERSLEY     MOSUNNY   57  32  38 SW9G17    29.35S
LLOYDMINSTER   PTSUNNY   50  37  62 W5        29.33S
PRINCE ALBERT  PTSUNNY   57  37  47 W13G21    29.34R
REGINA         MOSUNNY   63  32  31 SW23G30   29.45S
YORKTON        SUNNY     61  36  39 SW23G31   29.42S



USA.gov is the U.S. government's official web portal to all federal, state and local government web resources and services.